Location: ???? ???????
(44.1394°N, 135.5834°E)
Time: 10:20:35
(UTC+00:00)

Daily predictions for brighter satellites

Satellite Brightness Start Highest point End
(mag) Time Altitude Azimuth Time Altitude Azimuth Time Altitude Azimuth
CZ-4 R/B 3.9 12:02:12 10° WSW 12:04:02 13° W 12:05:52 10° WNW
Cosmos 1805 4.2 12:01:47 10° NNE 12:04:29 24° ENE 12:04:40 23° E
USA 305 4.4 12:05:40 10° W 12:08:29 19° SW 12:09:52 15° SSW
CZ-4B R/B 3.6 12:06:24 29° SE 12:08:36 53° ENE 12:13:19 10° N
Cosmos 1933 3.1 12:07:54 33° SSE 12:09:24 64° E 12:13:11 10° NNE
Cosmos 1992 Rocket 4.5 12:04:22 10° SSW 12:09:30 62° WNW 12:14:41 10° NNE
Meteor 1-25 Rocket 4.4 12:04:01 10° N 12:09:35 56° ENE 12:12:22 28° SE
USA 186 2.2 12:10:20 33° SW 12:11:07 43° W 12:13:46 10° NNW
Cosmos 2219 Rocket 3.7 12:06:35 10° N 12:11:16 26° NE 12:14:23 16° E
Cosmos 1513 Rocket 4.5 12:08:22 20° S 12:12:43 64° E 12:18:46 10° NNE
Cosmos 2061 Rocket 4.4 12:07:07 10° SSW 12:13:17 66° W 12:19:33 10° N
Cosmos 1464 Rocket 4.4 12:10:40 26° SE 12:13:38 44° E 12:19:26 10° NNE
CZ-2C R/B 3.1 12:17:39 30° ENE 12:17:39 30° ENE 12:19:50 10° N
USA 245 4.3 12:17:39 25° SSE 12:21:13 88° WSW 12:26:54 10° NNW
Cosmos 1602 Rocket 3.4 12:23:13 10° N 12:27:32 76° E 12:28:51 44° SSE
Cosmos 2322 Rocket 2.5 12:23:54 10° NNW 12:29:28 55° ENE 12:31:50 33° ESE
Cosmos 2082 Rocket 4.1 12:26:05 10° WSW 12:31:07 31° NW 12:36:09 10° N
IRS-1C Rocket 4.0 12:28:51 34° SSE 12:31:13 83° ENE 12:36:31 10° NNW
Cosmos 1072 Rocket 4.5 12:28:12 28° SSE 12:31:35 67° E 12:37:52 10° NNE
Okean 1 4.0 12:32:26 33° ENE 12:32:26 33° ENE 12:35:16 10° NNE
Chandra Rocket (1) 4.5 12:20:34 10° WSW 12:36:22 30° SSW 12:39:01 25° S
Terra 4.3 12:34:19 10° SW 12:37:11 16° W 12:40:03 10° NW
NOSS 3-4 (A) 4.0 12:30:36 10° NNW 12:37:23 69° NE 12:41:34 30° SE
Cosmos 1486 Rocket 4.0 12:32:18 10° NNW 12:37:35 71° ENE 12:39:24 41° SE
Cosmos 1461 3.8 12:34:22 10° WSW 12:37:53 41° NW 12:41:24 10° NNE
NOSS 3-4 (C) 4.0 12:31:14 10° NNW 12:38:02 69° NE 12:42:13 30° SE
Cosmos 220 Rocket 4.0 12:37:19 26° SSW 12:39:29 70° WNW 12:43:35 10° NNE
Meteor 2-10 4.3 12:36:37 10° N 12:42:21 68° ENE 12:44:22 40° SSE
Cosmos 2098 Rocket 3.1 12:41:21 39° S 12:43:10 88° E 12:47:30 10° N
Cosmos 1076 Rocket 3.9 12:44:08 10° N 12:48:13 44° ENE 12:48:30 43° E
Helios 1A 4.2 12:45:46 10° NE 12:48:15 25° ENE 12:48:15 25° ENE
Cosmos 1437 Rocket 4.1 12:47:46 20° SW 12:49:38 32° WNW 12:52:54 10° N
Cosmos 2034 Rocket 4.1 12:49:26 38° SSE 12:51:41 59° E 12:57:55 10° NNE
ISS -1.4 12:51:46 10° NW 12:54:28 22° N 12:56:44 12° NE
Cosmos 2278 3.8 12:49:23 10° NNW 12:55:05 71° WSW 12:57:01 42° S
Cosmos 540 Rocket 3.5 12:55:05 50° SE 12:55:51 56° ESE 13:00:53 10° NNE
Cosmos 2151 4.2 12:52:44 10° NNW 12:56:27 34° W 12:57:50 26° SW
USA 290 3.1 12:57:45 44° NNE 12:57:45 44° NNE 13:00:01 10° NNE
Meteor 1-5 Rocket 4.3 12:51:20 10° NNW 12:57:07 85° W 12:59:16 42° S
Cosmos 1606 Rocket 3.5 12:58:37 57° SSW 12:59:27 82° W 13:03:47 10° N
SL-16 R/B 2.7 12:54:15 10° NW 12:59:42 50° WSW 13:01:43 35° SSW
DELTA 2 R/B (1) 3.7 12:55:04 10° W 13:00:24 48° S 13:00:45 47° S
Okean O Rocket 4.1 13:05:21 10° SW 13:07:42 14° W 13:10:02 10° WNW
Cosmos 1726 Rocket 3.2 13:08:09 88° SSE 13:08:12 89° E 13:12:15 10° N
Cosmos 468 Rocket 4.5 13:10:37 42° E 13:10:37 42° E 13:15:28 10° NE
Nadezhda 4 Rocket 4.0 13:05:06 10° NNW 13:11:12 75° W 13:13:25 41° S
Geosat 3.9 13:09:16 10° NNE 13:14:17 70° ESE 13:14:58 61° SSE
Cosmos 1634 Rocket 4.2 13:14:36 44° SE 13:15:46 50° E 13:21:43 10° NNE
Ariane Rocket 4.1 13:17:46 29° SW 13:19:26 36° W 13:24:06 10° NNW
Okean 1-7 Rocket 4.3 13:19:03 10° NNW 13:23:19 45° W 13:24:01 42° WSW
Cosmos 2333 Rocket 3.3 13:21:35 10° NW 13:26:41 35° WSW 13:28:13 30° SW
Cosmos 2195 Rocket 4.4 13:23:14 10° N 13:29:27 80° W 13:31:07 51° S
Cosmos 1766 4.4 13:27:27 10° N 13:29:22 33° N 13:29:22 33° N
Cosmos 1833 4.3 13:28:33 35° SW 13:30:59 71° WNW 13:36:38 10° NNE
Cosmos 2297 Rocket 4.0 13:32:59 16° E 13:32:59 16° E 13:35:26 10° ENE
Cosmos-2242 3.0 13:32:48 72° N 13:32:48 72° N 13:36:32 10° N
IKONOS-2 4.5 13:28:30 10° NNE 13:32:25 77° NNW 13:32:25 77° NNW
Cosmos 2026 Rocket 4.0 13:27:35 10° N 13:34:00 87° W 13:35:39 53° S
Cosmos 1763 Rocket 3.9 13:34:01 37° SW 13:35:57 60° WNW 13:41:11 10° NNE
Cosmos 1627 Rocket 4.5 13:30:28 10° N 13:36:54 87° W 13:38:30 54° S
Meteor 2-6 Rocket 4.4 13:37:28 54° ESE 13:38:09 57° E 13:44:00 10° NNE
Cosmos 1898 Rocket 4.3 13:35:35 10° N 13:40:26 39° ENE 13:41:14 37° E
Cosmos 2360 Rocket 2.7 13:36:27 10° NW 13:41:50 45° WSW 13:42:42 42° SW
Cosmos 2322 4.4 13:37:33 10° NNW 13:43:01 45° ENE 13:44:18 39° E
Cosmos 990 Rocket 4.0 13:41:46 10° NNW 13:46:52 62° WSW 13:47:12 61° SW
CZ-2C R/B 4.0 13:50:26 10° NNE 13:54:13 56° ENE 13:54:13 56° ENE
Cosmos 44 3.3 13:49:50 10° NNW 13:55:15 81° NE 13:55:34 77° ESE
Cosmos 2219 Rocket 2.4 13:50:01 10° NNW 13:55:33 57° WSW 13:56:04 54° SW
Cosmos 2221 3.5 13:57:43 37° NE 13:57:43 37° NE 14:00:38 10° NNE
Helios 1B rocket 3.6 14:05:27 33° NW 14:05:27 33° NW 14:07:37 10° NNW
Cosmos 1536 4.0 14:04:09 10° NNW 14:06:36 36° NW 14:06:36 36° NW
Cosmos 841 Rocket 3.6 14:08:32 64° E 14:08:32 64° E 14:13:23 10° NNE
Cosmos 2058 Rocket 3.9 14:08:54 43° WNW 14:08:54 43° WNW 14:12:59 10° N
Cosmos 2322 Rocket 3.7 14:08:42 10° NW 14:13:04 23° WSW 14:13:37 23° WSW
GP-B 4.3 14:09:52 10° NNE 14:13:05 33° ENE 14:13:05 33° ENE
Cosmos 1470 4.4 14:10:36 10° N 14:12:14 27° N 14:12:14 27° N
Cosmos 2142 Rocket 4.3 14:21:49 68° SSE 14:22:39 82° E 14:28:54 10° N
Cosmos 2180 Rocket 4.3 14:23:05 68° SSE 14:23:53 81° E 14:30:14 10° N
ARIANE 5 R/B 3.0 14:25:28 62° NW 14:25:28 62° NW 14:29:17 10° NNW
ALOS 2 2.9 14:27:02 63° NNW 14:27:02 63° NNW 14:30:45 10° NNW
Meteor 2-9 Rocket 4.0 14:21:14 10° NNW 14:26:40 85° W 14:26:50 83° SW
Cosmos 372 Rocket 4.2 14:24:07 10° NNW 14:28:46 58° W 14:28:46 58° W
ISS -1.1 14:28:35 10° NW 14:29:40 18° NW 14:29:40 18° NW
Cosmos 2237 Rocket 3.1 14:26:37 10° NNW 14:32:01 42° ENE 14:33:25 36° E
CZ-2C R/B 3.4 14:31:45 38° E 14:32:25 40° ENE 14:37:16 10° N
NOSS 0 Rocket 3.9 14:28:34 10° NNW 14:34:46 77° ENE 14:35:40 64° ESE
Cosmos 1975 4.2 14:31:57 10° NNW 14:34:08 33° NNW 14:34:08 33° NNW
Cosmos 1980 4.3 14:30:42 10° NNW 14:36:11 48° ENE 14:37:18 43° E
USA 234 3.1 14:29:54 10° NE 14:36:29 79° SE 14:37:55 57° SSW
Spot 4 4.2 14:37:12 57° WNW 14:37:12 57° WNW 14:41:27 10° NNW
RESURS DK-1 3.5 14:34:00 10° NNW 14:36:32 38° NW 14:36:32 38° NW
Meteor 2-4 Rocket 4.3 14:41:40 42° E 14:41:40 42° E 14:46:45 10° NNE
Cosmos 2227 Rocket 3.5 14:42:13 26° E 14:42:13 26° E 14:46:20 10° NE
COSMOS 2428 2.6 14:36:41 10° NNW 14:42:22 74° WSW 14:42:24 74° WSW
Meteor 1-11 Rocket 3.5 14:37:35 10° N 14:43:16 86° E 14:43:28 83° SE
Meteor 1-10 Rocket 4.2 14:45:12 75° SW 14:45:42 84° W 14:51:41 10° N
Cosmos 858 Rocket 4.5 14:41:07 10° NNW 14:46:15 73° ENE 14:46:15 73° ENE
BREEZE-M DEB (TANK) 4.3 14:27:12 10° SW 14:48:45 64° SSE 14:54:22 10° ENE
ARGOS Delta rocket 4.3 14:43:58 10° N 14:49:03 59° WNW 14:49:22 58° W
PSLV R/B 4.1 14:45:16 10° N 14:48:54 55° NNW 14:48:54 55° NNW
Cosmos 1937 Rocket 3.5 14:44:29 10° NNW 14:49:12 69° WNW 14:49:12 69° WNW
Cosmos 1766 Rocket 4.5 14:46:56 10° N 14:50:23 42° NE 14:50:23 42° NE
Cosmos 2263 Rocket 3.9 14:52:40 20° E 14:52:40 20° E 14:56:15 10° NE
Lacrosse 4 Rocket 3.0 14:55:01 26° ENE 14:55:01 26° ENE 14:57:04 10° NE
Meteor 2-20 Rocket 4.3 14:57:12 66° ESE 14:57:29 67° E 15:03:09 10° NNE
ACS3 Solar Sail 2.8 14:53:56 10° NNE 14:59:11 31° E 14:59:54 30° ESE
Meteor 1-27 Rocket 3.6 15:00:42 79° SSE 15:01:02 86° E 15:06:50 10° NNE
Meteor 2-20 4.4 15:06:13 66° SW 15:06:55 74° W 15:13:02 10° N
MetOp-A 4.1 15:10:01 63° WNW 15:10:01 63° WNW 15:14:15 10° NNW
CZ-2C R/B 3.2 15:04:35 10° N 15:10:23 79° WNW 15:10:55 71° SW
SeaSat 1 3.3 15:10:39 37° E 15:11:46 43° NE 15:16:24 10° NNW
Cosmos 2297 Rocket 2.2 15:14:44 67° W 15:15:13 71° WNW 15:20:54 10° NNE
Cosmos 2266 Rocket 4.5 15:22:33 10° NNW 15:28:11 43° W 15:28:39 42° WSW
Cosmos 1238 Rocket 3.9 15:29:51 42° NNW 15:29:51 42° NNW 15:33:02 10° N
Meteor 2-10 Rocket 3.7 15:25:32 10° N 15:31:06 74° ENE 15:31:45 67° SE
BREEZE-M R/B 4.0 15:27:34 10° WNW 15:33:28 73° SSW 15:40:43 10° SE
Cosmos 1066 Rocket 3.9 15:39:40 80° SW 15:39:57 85° WNW 15:45:28 10° N
Cosmos 1814 Rocket 3.8 15:40:06 86° W 15:40:09 87° WNW 15:45:25 10° NNE
Okean 3 Rocket 3.9 15:38:54 10° N 15:43:11 62° ENE 15:43:11 62° ENE
Cosmos 1758 4.5 15:40:53 10° N 15:43:27 36° NE 15:43:27 36° NE
Cosmos 1842 Rocket 3.9 15:48:32 59° NW 15:48:32 59° NW 15:52:22 10° N
BlueWalker 3 3.3 15:53:16 34° NNE 15:53:16 34° NNE 15:55:36 10° NE
Landsat 5 4.3 15:49:30 10° N 15:52:44 42° NW 15:52:44 42° NW
Meteor 1-18 Rocket 4.0 15:54:18 72° SSW 15:54:53 84° W 16:00:34 10° N
Cosmos 1655 Rocket 4.1 15:48:57 10° NNW 15:55:01 55° W 15:55:49 52° WSW
Sich 1 3.3 15:53:19 10° N 15:56:47 60° NNW 15:56:47 60° NNW
IDEFIX/ARIANE 42P 3.8 15:53:55 10° NE 15:58:32 31° E 15:59:40 28° ESE
Cosmos 1805 Rocket 3.9 15:56:07 10° N 16:00:22 56° ENE 16:00:22 56° ENE
Cosmos 1340 Rocket 3.7 15:56:46 10° N 16:00:11 41° ENE 16:00:11 41° ENE
SL-14 R/B 4.0 16:01:58 49° N 16:01:58 49° N 16:04:52 10° N
SL-16 R/B 2.5 15:58:28 10° NNW 16:04:08 62° ENE 16:06:33 34° SE
Cosmos 2219 3.8 16:03:34 40° SE 16:04:24 43° ESE 16:09:41 10° NE
ADEOS Rocket 4.4 16:04:31 10° NNE 16:11:35 39° E 16:15:15 24° SE
CZ-2C R/B 3.8 16:13:11 27° W 16:13:11 27° W 16:17:11 10° NW
Cosmos 2237 Rocket 3.2 16:10:58 10° NW 16:15:11 30° W 16:15:11 30° W
Spot 1 4.2 16:13:38 10° NNE 16:18:21 79° ESE 16:18:47 71° SSE
USA 234 4.2 16:13:07 10° NE 16:19:12 43° NNW 16:25:14 10° W
In-Cosmos 22 4.2 16:19:04 58° SW 16:19:55 67° WNW 16:25:33 10° N
Cosmos 1953 3.9 16:19:09 10° NNE 16:22:14 25° ENE 16:23:03 23° E
Cosmos 1408 Rocket 3.5 16:20:09 10° NNW 16:24:13 73° WNW 16:24:13 73° WNW
Cosmos 2227 Rocket 2.7 16:23:59 40° W 16:25:24 48° WNW 16:30:55 10° NNE
Cosmos 2084 3.8 16:25:03 10° NNW 16:29:07 57° NE 16:30:33 36° ESE
Lacrosse 4 Rocket 3.3 16:30:24 19° WNW 16:31:11 20° NW 16:34:12 10° N
ATLAS 2AS CENTAUR R/B 3.7 16:26:12 10° NNW 16:32:40 44° NE 16:39:07 10° ESE
Cosmos 2263 Rocket 2.3 16:34:19 47° WSW 16:35:40 62° WNW 16:41:13 10° NNE
ACS3 Solar Sail 2.3 16:36:01 10° N 16:41:37 44° WNW 16:43:23 35° WSW
NOSS 2-2 (C) 3.7 16:44:16 44° ENE 16:44:16 44° ENE 16:46:33 10° NE
S3M 3.9 16:41:30 42° S 16:43:45 87° E 16:49:57 10° N
Cosmos 1943 3.8 16:43:27 10° NNW 16:48:59 54° ENE 16:54:28 10° SE
SeaSat 1 3.7 16:50:15 26° W 16:50:15 26° W 16:53:25 10° NW
ADEOS II 4.4 16:50:04 10° NE 16:53:23 17° E 16:56:41 10° SE
Cosmos 2315 Rocket 4.0 16:50:40 36° S 16:53:30 83° E 16:59:52 10° N
MSX 3.8 16:51:54 10° NNE 16:57:42 82° WNW 16:59:56 40° SSW
Cosmos 1151 Rocket 4.0 16:58:38 30° W 16:58:51 31° WNW 17:02:42 10° NNW
Cosmos 1703 3.4 16:59:36 48° NW 16:59:36 48° NW 17:02:12 10° N
Cosmos 2297 Rocket 4.5 16:57:21 10° WNW 17:00:19 14° NW 17:03:19 10° N
Tiangong 0.1 17:04:12 18° ESE 17:04:12 18° ESE 17:05:11 10° ESE
Cosmos 1570 Rocket 4.0 17:01:32 44° SW 17:03:09 71° WNW 17:08:29 10° NNE
Resurs 1-4 Rocket 3.5 16:59:56 10° NNE 17:04:37 32° E 17:08:21 14° SSE
Cosmos 1633 Rocket 3.2 17:02:28 10° N 17:06:47 67° E 17:08:47 30° SSE
Cosmos 1844 Rocket 3.2 17:04:15 28° SSE 17:06:51 50° ESE 17:12:13 10° NE
Cosmos 2082 3.7 17:05:46 40° SW 17:07:52 73° WNW 17:13:30 10° NNE
Cosmos 1470 Rocket 4.5 17:03:51 10° N 17:08:03 45° ENE 17:11:20 16° SSE
Cosmos 1125 Rocket 4.0 17:04:41 10° NW 17:09:34 39° WSW 17:10:15 37° WSW
CENTAUR R/B 2.5 17:11:01 34° S 17:13:20 62° ESE 17:19:54 10° NE
Cosmos 1709 Rocket 4.0 17:08:27 10° NNW 17:14:33 63° W 17:17:39 30° SSW
NOSS 2-2 (D) 3.2 17:15:06 50° SSE 17:15:24 52° SE 17:18:25 10° NE
CZ-4C R/B 4.2 17:09:22 10° NNW 17:15:45 41° NE 17:23:37 10° ESE
Cosmos 773 Rocket 4.1 17:18:43 36° SW 17:20:35 58° WNW 17:25:39 10° NNE
Meteor 1-21 4.3 17:17:54 26° S 17:21:07 76° E 17:26:44 10° NNE
Atlas Centaur 2 3.7 17:23:32 25° SSW 17:25:13 28° S 17:31:42 10° ESE
Geosat FO 4.3 17:25:02 10° NE 17:27:38 48° ESE 17:27:47 48° SE
Cosmos 2150 Rocket 4.0 17:24:18 10° NNW 17:29:45 80° WSW 17:35:04 11° SSE
BlueWalker 3 4.1 17:27:26 10° WNW 17:30:09 20° N 17:32:51 10° NE
CRYOSAT 2 4.4 17:32:30 30° SSW 17:34:49 60° W 17:39:40 10° NNW
Okean 2 3.3 17:33:47 30° S 17:35:34 72° E 17:39:23 10° NNE
FENGYUN 3A 4.0 17:32:42 10° N 17:37:54 49° WNW 17:40:36 26° SW
IDEFIX/ARIANE 42P 3.4 17:33:14 10° N 17:37:59 36° WNW 17:40:21 24° WSW
COSMOS 2441 4.3 17:33:42 10° N 17:38:28 71° WNW 17:40:59 28° SSW
Cosmos 1666 Rocket 4.0 17:34:46 10° NNW 17:38:59 44° W 17:40:32 31° SW
Cosmos 2208 Rocket 4.5 17:37:23 27° SW 17:39:55 49° WNW 17:45:02 10° N
BREEZE-M DEB (TANK) 4.5 17:40:35 10° NW 17:43:24 23° N 17:45:15 10° ENE
H-2A R/B 2.8 17:39:13 10° NNE 17:44:31 54° E 17:49:33 11° S
Cosmos 1844 3.7 17:41:18 24° SSW 17:44:50 89° ESE 17:50:38 10° NNE
CZ-2D R/B 2.5 17:39:31 10° NNE 17:44:55 65° ESE 17:49:30 15° S
SL-16 R/B 3.5 17:43:37 10° NW 17:47:41 20° W 17:48:21 20° WSW
Cosmos 2219 4.3 17:45:26 19° WSW 17:48:38 32° NW 17:53:38 10° N
NPP 4.4 17:47:11 10° N 17:52:06 37° WNW 17:55:04 21° WSW
USA 281 3.2 17:46:01 10° SSE 17:52:35 85° WSW 17:59:12 10° NNW
Cosmos 2344 4.3 17:47:13 12° S 17:54:28 46° ESE 18:01:15 10° NE
IRIDIUM 104 4.5 17:50:30 10° N 17:55:44 77° E 18:00:57 10° S
NOAA 11 4.5 17:51:24 10° N 17:56:41 52° WNW 18:00:15 20° SW
Cosmos 1953 3.6 17:54:17 10° NW 17:56:59 20° W 17:57:14 20° W
ADEOS Rocket 4.0 17:49:49 10° N 17:57:04 47° WNW 18:02:10 18° SW
DMSP B5D2-2 4.1 17:52:20 11° S 17:57:13 64° WSW 18:02:25 10° NNW
Cosmos 2154 Rocket 4.1 17:51:29 10° N 17:57:46 82° E 18:03:57 10° S
NOSS 3-2 (A) 3.8 17:54:49 15° S 17:58:31 44° ESE 18:03:52 10° NE
Envisat 3.0 17:54:47 10° N 17:59:50 71° WNW 18:03:34 18° SSW
Cosmos 2074 Rocket 4.0 17:54:04 10° N 18:00:23 85° W 18:06:37 10° S
Cosmos 1515 Rocket 3.6 17:57:45 22° SSW 18:00:33 65° W 18:04:58 10° N
IRIDIUM 114 4.3 17:59:39 10° N 18:04:54 88° W 18:10:07 10° S
Cosmos 2184 Rocket 3.9 18:00:16 10° N 18:06:27 80° W 18:12:36 10° S
EXPRESS MD2 4.2 18:04:33 10° NW 18:06:41 31° NNE 18:09:28 10° E
ARGOS 4.4 18:02:11 10° NNE 18:07:12 39° E 18:12:10 10° SSE
Cosmos 1400 Rocket 3.8 18:06:15 10° N 18:09:54 45° ENE 18:13:32 10° SSE
IRIDIUM 103 4.3 18:08:49 10° N 18:14:03 73° W 18:19:13 10° S
ALOS 2.3 18:14:03 10° N 18:18:32 60° WNW 18:22:24 14° SSW
NOSS 2-2 (E) 3.5 18:18:31 18° WSW 18:20:42 41° NW 18:23:37 10° NNE
Cosmos 2263 Rocket 4.4 18:18:25 10° WNW 18:20:46 13° NW 18:23:07 10° NNW
Cosmos 1867 3.8 18:17:05 10° NW 18:22:20 49° WSW 18:27:34 10° S
ATLAS 2AS CENTAUR R/B 2.9 18:17:12 10° NW 18:23:34 45° WSW 18:29:58 10° S
Okean 1-7 4.4 18:26:09 10° SSE 18:29:53 36° E 18:33:40 10° NNE
H-2A R/B 2.4 18:26:39 10° S 18:30:02 42° W 18:33:28 10° NNW
Cosmos 1610 Rocket 4.5 18:25:22 10° N 18:31:34 82° W 18:37:49 10° S
Cosmos 1943 4.3 18:28:15 10° NW 18:32:34 23° WSW 18:36:51 10° SSW
ADEOS II 2.2 18:28:11 10° N 18:33:23 66° WNW 18:38:32 10° SSW
Cosmos 2285 Rocket 4.5 18:28:42 10° NW 18:34:29 39° W 18:40:15 10° SSW
Cosmos 1733 Rocket 4.2 18:30:20 10° N 18:34:31 46° ENE 18:38:40 10° SSE
Okean 3 3.9 18:33:46 12° SSW 18:37:15 40° WNW 18:41:03 10° N
METEOR-M 4.1 18:32:59 10° NNE 18:38:20 80° WNW 18:43:39 10° SSW
Tiangong -0.8 18:36:23 12° WSW 18:38:33 23° SSW 18:41:06 10° SSE
Cosmos 1538 Rocket 4.0 18:37:58 10° SSW 18:43:05 71° WNW 18:48:15 10° NNE
Resurs 1-4 Rocket 2.9 18:39:36 10° N 18:44:22 36° WNW 18:49:06 10° SW
BREEZE-M DEB (TANK) 3.2 18:42:14 10° WNW 18:46:43 36° N 18:49:07 10° ENE
Cosmos 1833 Rocket 3.6 18:44:27 10° NNW 18:50:01 55° ENE 18:55:32 10° SE
Cosmos 1844 Rocket 3.9 18:46:13 10° WSW 18:50:58 28° NW 18:55:43 10° N
Cosmos 1933 Rocket 4.4 18:49:18 10° NNW 18:53:07 30° W 18:56:51 10° SSW
Cosmos 923 Rocket 4.4 18:51:02 10° S 18:56:17 67° ESE 19:01:33 10° NNE
CZ-2C R/B 3.5 18:52:11 10° NNE 18:56:31 41° E 19:00:48 10° S
Nadezhda 1 Rocket 4.3 18:52:47 10° SSW 18:58:37 47° WNW 19:04:27 10° N
SL-16 R/B 2.6 18:52:26 10° SSE 18:58:43 87° WSW 19:04:59 10° NNW
Cosmos 1603 4.4 18:54:11 10° NW 18:59:13 32° WSW 19:04:13 10° SSW
CZ-4C R/B 3.1 18:57:18 10° NW 19:04:27 62° WSW 19:13:10 10° SSE
